Simultaneous Nadir Overpasses (SNOs) Predictions

Prediction of SNOs between AQUA and NOAA-19 Satellite Orbit:

Table of predicted SNOs for the next 14.0 days since TLE Epoch: 8/24/2012
Index Date (AQUA) Time (AQUA) AQUA Lat,Lon Date (NOAA-19) Time (NOAA-19) NOAA-19 Lat,Lon Distance(km) Time Diff (sec)
1 08/24/2012 15:40:00 47.28, 157.75 08/24/2012 15:40:21 47.28, 157.87 9.05 21
2 08/26/2012 19:35:15 -46.05, -81.45 08/26/2012 19:34:18 -45.99, -81.04 31.67 57
3 08/26/2012 20:23:58 48.44, 87.13 08/26/2012 20:24:39 48.44, 87.20 5.62 41
4 08/29/2012 00:19:33 -46.00,-152.54 08/29/2012 00:18:57 -45.97,-152.21 25.61 36
5 08/29/2012 01:07:53 49.75, 16.59 08/29/2012 01:08:54 49.76, 16.63 3.07 61
6 08/31/2012 05:03:50 -46.00, 136.39 08/31/2012 05:03:36 -45.94, 136.62 19.43 14
7 08/31/2012 05:47:14 66.98, -43.29 08/31/2012 05:48:27 66.86, -42.52 35.72 73
8 09/02/2012 09:47:59 -46.47, 65.49 09/02/2012 09:48:06 -46.43, 65.66 14.00 7
9 09/04/2012 13:42:53 46.04,-173.37 09/04/2012 13:41:50 45.93,-172.93 36.10 63
10 09/04/2012 14:31:55 -47.69, -5.11 09/04/2012 14:32:23 -47.67, -4.98 10.18 28
11 09/06/2012 18:27:10 46.01, 115.55 09/06/2012 18:26:28 45.93, 115.92 29.73 42




NCC Satellite Simultaneous Nadir Overpasses (SNOs) Prediction Service
